Year,Month,Day,Hour,Minute,Value (Times are PST for temperature in C)
2009,07,17,00,00,17.50
2009,07,17,00,01,17.40
2009,07,17,00,02,17.40
2009,07,17,00,03,17.40
2009,07,17,00,04,17.40
2009,07,17,00,05,17.40
2009,07,17,00,06,17.40
2009,07,17,00,07,17.30
2009,07,17,00,08,17.30
2009,07,17,00,09,17.30
2009,07,17,00,10,17.30
2009,07,17,00,11,17.30
2009,07,17,00,12,17.30
2009,07,17,00,13,17.30
2009,07,17,00,14,17.30
2009,07,17,00,15,17.30
2009,07,17,00,16,17.30
2009,07,17,00,17,17.20
2009,07,17,00,18,17.20
2009,07,17,00,19,17.20
2009,07,17,00,20,17.10
2009,07,17,00,21,17.10
2009,07,17,00,22,17.00
2009,07,17,00,23,17.00
2009,07,17,00,24,17.00
2009,07,17,00,25,17.00
2009,07,17,00,26,17.00
2009,07,17,00,27,17.00
2009,07,17,00,28,17.00
2009,07,17,00,29,17.00
2009,07,17,00,30,17.00
2009,07,17,00,31,16.90
2009,07,17,00,32,16.90
2009,07,17,00,33,16.90
2009,07,17,00,34,16.90
2009,07,17,00,35,16.90
2009,07,17,00,36,16.90
2009,07,17,00,37,16.90
2009,07,17,00,38,16.90
2009,07,17,00,39,16.90
2009,07,17,00,40,16.90
2009,07,17,00,41,16.90
2009,07,17,00,42,16.90
2009,07,17,00,43,16.90
2009,07,17,00,44,16.90
2009,07,17,00,45,16.90
2009,07,17,00,46,16.90
2009,07,17,00,47,16.80
2009,07,17,00,48,16.80
2009,07,17,00,49,16.80
2009,07,17,00,50,16.80
2009,07,17,00,51,16.80
2009,07,17,00,52,16.70
2009,07,17,00,53,16.70
2009,07,17,00,54,16.70
2009,07,17,00,55,16.70
2009,07,17,00,56,16.70
2009,07,17,00,57,16.70
2009,07,17,00,58,16.70
2009,07,17,00,59,16.70
2009,07,17,01,00,16.70
2009,07,17,01,01,16.70
2009,07,17,01,02,16.70
2009,07,17,01,03,16.70
2009,07,17,01,04,16.70
2009,07,17,01,05,16.70
2009,07,17,01,06,16.70
2009,07,17,01,07,16.60
2009,07,17,01,08,16.60
2009,07,17,01,09,16.60
2009,07,17,01,10,16.60
2009,07,17,01,11,16.60
2009,07,17,01,12,16.60
2009,07,17,01,13,16.60
2009,07,17,01,14,16.60
2009,07,17,01,15,16.60
2009,07,17,01,16,16.60
2009,07,17,01,17,16.50
2009,07,17,01,18,16.50
2009,07,17,01,19,16.40
2009,07,17,01,20,16.40
2009,07,17,01,21,16.40
2009,07,17,01,22,16.40
2009,07,17,01,23,16.40
2009,07,17,01,24,16.40
2009,07,17,01,25,16.40
2009,07,17,01,26,16.40
2009,07,17,01,27,16.40
2009,07,17,01,28,16.40
2009,07,17,01,29,16.40
2009,07,17,01,30,16.40
2009,07,17,01,31,16.40
2009,07,17,01,32,16.40
2009,07,17,01,33,16.40
2009,07,17,01,34,16.40
2009,07,17,01,35,16.40
2009,07,17,01,36,16.40
2009,07,17,01,37,16.40
2009,07,17,01,38,16.40
2009,07,17,01,39,16.40
2009,07,17,01,40,16.40
2009,07,17,01,41,16.40
2009,07,17,01,42,16.40
2009,07,17,01,43,16.30
2009,07,17,01,44,16.30
2009,07,17,01,45,16.30
2009,07,17,01,46,16.30
2009,07,17,01,47,16.30
2009,07,17,01,48,16.30
2009,07,17,01,49,16.30
2009,07,17,01,50,16.30
2009,07,17,01,51,16.20
2009,07,17,01,52,16.20
2009,07,17,01,53,16.20
2009,07,17,01,54,16.20
2009,07,17,01,55,16.20
2009,07,17,01,56,16.20
2009,07,17,01,57,16.20
2009,07,17,01,58,16.20
2009,07,17,01,59,16.20
2009,07,17,02,00,16.20
2009,07,17,02,01,16.20
2009,07,17,02,02,16.10
2009,07,17,02,03,16.10
2009,07,17,02,04,16.10
2009,07,17,02,05,16.10
2009,07,17,02,06,16.10
2009,07,17,02,07,16.10
2009,07,17,02,08,16.10
2009,07,17,02,09,16.10
2009,07,17,02,10,16.10
2009,07,17,02,11,16.10
2009,07,17,02,12,16.10
2009,07,17,02,13,16.00
2009,07,17,02,14,15.90
2009,07,17,02,15,15.90
2009,07,17,02,16,15.90
2009,07,17,02,17,15.90
2009,07,17,02,18,15.80
2009,07,17,02,19,15.80
2009,07,17,02,20,15.80
2009,07,17,02,21,15.80
2009,07,17,02,22,15.80
2009,07,17,02,23,15.80
2009,07,17,02,24,15.80
2009,07,17,02,25,15.80
2009,07,17,02,26,15.80
2009,07,17,02,27,15.80
2009,07,17,02,28,15.80
2009,07,17,02,29,15.80
2009,07,17,02,30,15.70
2009,07,17,02,31,15.70
2009,07,17,02,32,15.70
2009,07,17,02,33,15.70
2009,07,17,02,34,15.70
2009,07,17,02,35,15.70
2009,07,17,02,36,15.70
2009,07,17,02,37,15.70
2009,07,17,02,38,15.70
2009,07,17,02,39,15.60
2009,07,17,02,40,15.60
2009,07,17,02,41,15.60
2009,07,17,02,42,15.60
2009,07,17,02,43,15.60
2009,07,17,02,44,15.60
2009,07,17,02,45,15.60
2009,07,17,02,46,15.60
2009,07,17,02,47,15.60
2009,07,17,02,48,15.50
2009,07,17,02,49,15.50
2009,07,17,02,50,15.50
2009,07,17,02,51,15.50
2009,07,17,02,52,15.50
2009,07,17,02,53,15.50
2009,07,17,02,54,15.50
2009,07,17,02,55,15.50
2009,07,17,02,56,15.50
2009,07,17,02,57,15.50
2009,07,17,02,58,15.40
2009,07,17,02,59,15.40
2009,07,17,03,00,15.40
2009,07,17,03,01,15.40
2009,07,17,03,02,15.40
2009,07,17,03,03,15.30
2009,07,17,03,04,15.30
2009,07,17,03,05,15.30
2009,07,17,03,06,15.30
2009,07,17,03,07,15.30
2009,07,17,03,08,15.30
2009,07,17,03,09,15.30
2009,07,17,03,10,15.30
2009,07,17,03,11,15.30
2009,07,17,03,12,15.30
2009,07,17,03,13,15.30
2009,07,17,03,14,15.20
2009,07,17,03,15,15.20
2009,07,17,03,16,15.20
2009,07,17,03,17,15.20
2009,07,17,03,18,15.20
2009,07,17,03,19,15.20
2009,07,17,03,20,15.20
2009,07,17,03,21,15.20
2009,07,17,03,22,15.20
2009,07,17,03,23,15.10
2009,07,17,03,24,15.10
2009,07,17,03,25,15.10
2009,07,17,03,26,15.10
2009,07,17,03,27,15.10
2009,07,17,03,28,15.10
2009,07,17,03,29,15.10
2009,07,17,03,30,15.10
2009,07,17,03,31,15.10
2009,07,17,03,32,15.10
2009,07,17,03,33,15.10
2009,07,17,03,34,15.10
2009,07,17,03,35,15.10
2009,07,17,03,36,15.10
2009,07,17,03,37,15.00
2009,07,17,03,38,15.00
2009,07,17,03,39,15.00
2009,07,17,03,40,15.00
2009,07,17,03,41,14.90
2009,07,17,03,42,14.90
2009,07,17,03,43,14.90
2009,07,17,03,44,14.90
2009,07,17,03,45,14.90
2009,07,17,03,46,14.90
2009,07,17,03,47,14.90
2009,07,17,03,48,14.90
2009,07,17,03,49,14.90
2009,07,17,03,50,14.90
2009,07,17,03,51,14.80
2009,07,17,03,52,14.80
2009,07,17,03,53,14.80
2009,07,17,03,54,14.80
2009,07,17,03,55,14.80
2009,07,17,03,56,14.80
2009,07,17,03,57,14.80
2009,07,17,03,58,14.80
2009,07,17,03,59,14.80
2009,07,17,04,00,14.80
2009,07,17,04,01,14.80
2009,07,17,04,02,14.80
2009,07,17,04,03,14.80
2009,07,17,04,04,14.80
2009,07,17,04,05,14.80
2009,07,17,04,06,14.80
2009,07,17,04,07,14.80
2009,07,17,04,08,14.80
2009,07,17,04,09,14.80
2009,07,17,04,10,14.80
2009,07,17,04,11,14.80
2009,07,17,04,12,14.80
2009,07,17,04,13,14.80
2009,07,17,04,14,14.80
2009,07,17,04,15,14.80
2009,07,17,04,16,14.80
2009,07,17,04,17,14.80
2009,07,17,04,18,14.80
2009,07,17,04,19,14.80
2009,07,17,04,20,14.80
2009,07,17,04,21,14.80
2009,07,17,04,22,14.80
2009,07,17,04,23,14.80
2009,07,17,04,24,14.80
2009,07,17,04,25,14.80
2009,07,17,04,26,14.80
2009,07,17,04,27,14.80
2009,07,17,04,28,14.80
2009,07,17,04,29,14.80
2009,07,17,04,30,14.80
2009,07,17,04,31,14.80
2009,07,17,04,32,14.80
2009,07,17,04,33,14.80
2009,07,17,04,34,14.80
2009,07,17,04,35,14.80
2009,07,17,04,36,14.70
2009,07,17,04,37,14.70
2009,07,17,04,38,14.70
2009,07,17,04,39,14.70
2009,07,17,04,40,14.60
2009,07,17,04,41,14.60
2009,07,17,04,42,14.60
2009,07,17,04,43,14.60
2009,07,17,04,44,14.60
2009,07,17,04,45,14.60
2009,07,17,04,46,14.50
2009,07,17,04,47,14.50
2009,07,17,04,48,14.50
2009,07,17,04,49,14.50
2009,07,17,04,50,14.50
2009,07,17,04,51,14.50
2009,07,17,04,52,14.50
2009,07,17,04,53,14.50
2009,07,17,04,54,14.50
2009,07,17,04,55,14.40
2009,07,17,04,56,14.40
2009,07,17,04,57,14.40
2009,07,17,04,58,14.40
2009,07,17,04,59,14.40
2009,07,17,05,00,14.40
2009,07,17,05,01,14.40
2009,07,17,05,02,14.40
2009,07,17,05,03,14.40
2009,07,17,05,04,14.40
2009,07,17,05,05,14.40
2009,07,17,05,06,14.40
2009,07,17,05,07,14.30
2009,07,17,05,08,14.30
2009,07,17,05,09,14.30
2009,07,17,05,10,14.30
2009,07,17,05,11,14.20
2009,07,17,05,12,14.20
2009,07,17,05,13,14.20
2009,07,17,05,14,14.20
2009,07,17,05,15,14.20
2009,07,17,05,16,14.20
2009,07,17,05,17,14.20
2009,07,17,05,18,14.20
2009,07,17,05,19,14.20
2009,07,17,05,20,14.20
2009,07,17,05,21,14.20
2009,07,17,05,22,14.20
2009,07,17,05,23,14.20
2009,07,17,05,24,14.20
2009,07,17,05,25,14.20
2009,07,17,05,26,14.20
2009,07,17,05,27,14.20
2009,07,17,05,28,14.20
2009,07,17,05,29,14.20
2009,07,17,05,30,14.20
2009,07,17,05,31,14.20
2009,07,17,05,32,14.10
2009,07,17,05,33,14.10
2009,07,17,05,34,14.10
2009,07,17,05,35,14.10
2009,07,17,05,36,14.10
2009,07,17,05,37,14.10
2009,07,17,05,38,14.10
2009,07,17,05,39,14.00
2009,07,17,05,40,14.00
2009,07,17,05,41,14.00
2009,07,17,05,42,14.00
2009,07,17,05,43,14.00
2009,07,17,05,44,14.00
2009,07,17,05,45,14.00
2009,07,17,05,46,13.90
2009,07,17,05,47,13.90
2009,07,17,05,48,13.90
2009,07,17,05,49,13.90
2009,07,17,05,50,13.90
2009,07,17,05,51,13.80
2009,07,17,05,52,13.80
2009,07,17,05,53,13.80
2009,07,17,05,54,13.80
2009,07,17,05,55,13.80
2009,07,17,05,56,13.80
2009,07,17,05,57,13.80
2009,07,17,05,58,13.80
2009,07,17,05,59,13.80
2009,07,17,06,00,13.80
2009,07,17,06,01,13.80
2009,07,17,06,02,13.80
2009,07,17,06,03,13.80
2009,07,17,06,04,13.80
2009,07,17,06,05,13.70
2009,07,17,06,06,13.70
2009,07,17,06,07,13.70
2009,07,17,06,08,13.70
2009,07,17,06,09,13.70
2009,07,17,06,10,13.70
2009,07,17,06,11,13.70
2009,07,17,06,12,13.70
2009,07,17,06,13,13.70
2009,07,17,06,14,13.70
2009,07,17,06,15,13.70
2009,07,17,06,16,13.70
2009,07,17,06,17,13.70
2009,07,17,06,18,13.70
2009,07,17,06,19,13.70
2009,07,17,06,20,13.70
2009,07,17,06,21,13.70
2009,07,17,06,22,13.70
2009,07,17,06,23,13.70
2009,07,17,06,24,13.70
2009,07,17,06,25,13.70
2009,07,17,06,26,13.70
2009,07,17,06,27,13.70
2009,07,17,06,28,13.70
2009,07,17,06,29,13.70
2009,07,17,06,30,13.70
2009,07,17,06,31,13.70
2009,07,17,06,32,13.80
2009,07,17,06,33,13.80
2009,07,17,06,34,13.80
2009,07,17,06,35,13.80
2009,07,17,06,36,13.80
2009,07,17,06,37,13.80
2009,07,17,06,38,13.80
2009,07,17,06,39,13.80
2009,07,17,06,40,13.80
2009,07,17,06,41,13.80
2009,07,17,06,42,13.80
2009,07,17,06,43,13.80
2009,07,17,06,44,13.80
2009,07,17,06,45,13.80
2009,07,17,06,46,13.90
2009,07,17,06,47,13.90
2009,07,17,06,48,13.90
2009,07,17,06,49,13.90
2009,07,17,06,50,13.90
2009,07,17,06,51,13.90
2009,07,17,06,52,13.90
2009,07,17,06,53,13.90
2009,07,17,06,54,14.00
2009,07,17,06,55,14.00
2009,07,17,06,56,14.00
2009,07,17,06,57,14.00
2009,07,17,06,58,14.00
2009,07,17,06,59,14.00
2009,07,17,07,00,14.00
2009,07,17,07,01,14.10
2009,07,17,07,02,14.10
2009,07,17,07,03,14.10
2009,07,17,07,04,14.10
2009,07,17,07,05,14.10
2009,07,17,07,06,14.20
2009,07,17,07,07,14.20
2009,07,17,07,08,14.20
2009,07,17,07,09,14.20
2009,07,17,07,10,14.20
2009,07,17,07,11,14.20
2009,07,17,07,12,14.30
2009,07,17,07,13,14.30
2009,07,17,07,14,14.30
2009,07,17,07,15,14.40
2009,07,17,07,16,14.40
2009,07,17,07,17,14.40
2009,07,17,07,18,14.50
2009,07,17,07,19,14.50
2009,07,17,07,20,14.50
2009,07,17,07,21,14.60
2009,07,17,07,22,14.60
2009,07,17,07,23,14.60
2009,07,17,07,24,14.70
2009,07,17,07,25,14.70
2009,07,17,07,26,14.70
2009,07,17,07,27,14.80
2009,07,17,07,28,14.80
2009,07,17,07,29,14.80
2009,07,17,07,30,14.80
2009,07,17,07,31,14.90
2009,07,17,07,32,14.90
2009,07,17,07,33,14.90
2009,07,17,07,34,15.00
2009,07,17,07,35,15.00
2009,07,17,07,36,15.10
2009,07,17,07,37,15.10
2009,07,17,07,38,15.20
2009,07,17,07,39,15.20
2009,07,17,07,40,15.30
2009,07,17,07,41,15.30
2009,07,17,07,42,15.30
2009,07,17,07,43,15.40
2009,07,17,07,44,15.40
2009,07,17,07,45,15.50
2009,07,17,07,46,15.50
2009,07,17,07,47,15.60
2009,07,17,07,48,15.60
2009,07,17,07,49,15.70
2009,07,17,07,50,15.70
2009,07,17,07,51,15.80
2009,07,17,07,52,15.80
2009,07,17,07,53,15.80
2009,07,17,07,54,15.90
2009,07,17,07,55,16.00
2009,07,17,07,56,16.10
2009,07,17,07,57,16.10
2009,07,17,07,58,16.20
2009,07,17,07,59,16.20
2009,07,17,08,00,16.30
2009,07,17,08,01,16.30
2009,07,17,08,02,16.40
2009,07,17,08,03,16.40
2009,07,17,08,04,16.50
2009,07,17,08,05,16.60
2009,07,17,08,06,16.70
2009,07,17,08,07,16.70
2009,07,17,08,08,16.70
2009,07,17,08,09,16.80
2009,07,17,08,10,16.90
2009,07,17,08,11,16.90
2009,07,17,08,12,17.00
2009,07,17,08,13,17.00
2009,07,17,08,14,17.10
2009,07,17,08,15,17.20
2009,07,17,08,16,17.30
2009,07,17,08,17,17.30
2009,07,17,08,18,17.40
2009,07,17,08,19,17.50
2009,07,17,08,20,17.60
2009,07,17,08,21,17.70
2009,07,17,08,22,17.80
2009,07,17,08,23,17.90
2009,07,17,08,24,18.00
2009,07,17,08,25,18.10
2009,07,17,08,26,18.20
2009,07,17,08,27,18.20
2009,07,17,08,28,18.30
2009,07,17,08,29,18.30
2009,07,17,08,30,18.40
2009,07,17,08,31,18.50
2009,07,17,08,32,18.50
2009,07,17,08,33,18.60
2009,07,17,08,34,18.70
2009,07,17,08,35,18.70
2009,07,17,08,36,18.80
2009,07,17,08,37,18.90
2009,07,17,08,38,18.90
2009,07,17,08,39,18.90
2009,07,17,08,40,19.00
2009,07,17,08,41,19.10
2009,07,17,08,42,19.10
2009,07,17,08,43,19.10
2009,07,17,08,44,19.10
2009,07,17,08,45,19.20
2009,07,17,08,46,19.20
2009,07,17,08,47,19.30
2009,07,17,08,48,19.30
2009,07,17,08,49,19.40
2009,07,17,08,50,19.40
2009,07,17,08,51,19.50
2009,07,17,08,52,19.50
2009,07,17,08,53,19.60
2009,07,17,08,54,19.60
2009,07,17,08,55,19.70
2009,07,17,08,56,19.80
2009,07,17,08,57,19.80
2009,07,17,08,58,19.90
2009,07,17,08,59,19.90
2009,07,17,09,00,20.00
2009,07,17,09,01,20.10
2009,07,17,09,02,20.10
2009,07,17,09,03,20.20
2009,07,17,09,04,20.20
2009,07,17,09,05,20.30
2009,07,17,09,06,20.40
2009,07,17,09,07,20.40
2009,07,17,09,08,20.50
2009,07,17,09,09,20.50
2009,07,17,09,10,20.60
2009,07,17,09,11,20.60
2009,07,17,09,12,20.70
2009,07,17,09,13,20.70
2009,07,17,09,14,20.70
2009,07,17,09,15,20.80
2009,07,17,09,16,20.80
2009,07,17,09,17,20.80
2009,07,17,09,18,20.90
2009,07,17,09,19,20.90
2009,07,17,09,20,21.00
2009,07,17,09,21,21.00
2009,07,17,09,22,21.10
2009,07,17,09,23,21.10
2009,07,17,09,24,21.20
2009,07,17,09,25,21.30
2009,07,17,09,26,21.30
2009,07,17,09,27,21.40
2009,07,17,09,28,21.50
2009,07,17,09,29,21.60
2009,07,17,09,30,21.60
2009,07,17,09,31,21.60
2009,07,17,09,32,21.60
2009,07,17,09,33,21.70
2009,07,17,09,34,21.70
2009,07,17,09,35,21.70
2009,07,17,09,36,21.80
2009,07,17,09,37,21.80
2009,07,17,09,38,21.80
2009,07,17,09,39,21.80
2009,07,17,09,40,21.90
2009,07,17,09,41,22.00
2009,07,17,09,42,22.00
2009,07,17,09,43,22.00
2009,07,17,09,44,22.10
2009,07,17,09,45,22.10
2009,07,17,09,46,22.20
2009,07,17,09,47,22.20
2009,07,17,09,48,22.20
2009,07,17,09,49,22.30
2009,07,17,09,50,22.30
2009,07,17,09,51,22.30
2009,07,17,09,52,22.40
2009,07,17,09,53,22.40
2009,07,17,09,54,22.40
2009,07,17,09,55,22.40
2009,07,17,09,56,22.40
2009,07,17,09,57,22.40
2009,07,17,09,58,22.40
2009,07,17,09,59,22.50
2009,07,17,10,00,22.50
2009,07,17,10,01,22.50
2009,07,17,10,02,22.50
2009,07,17,10,03,22.60
2009,07,17,10,04,22.60
2009,07,17,10,05,22.60
2009,07,17,10,06,22.60
2009,07,17,10,07,22.60
2009,07,17,10,08,22.70
2009,07,17,10,09,22.70
2009,07,17,10,10,22.70
2009,07,17,10,11,22.70
2009,07,17,10,12,22.80
2009,07,17,10,13,22.80
2009,07,17,10,14,22.80
2009,07,17,10,15,22.90
2009,07,17,10,16,22.90
2009,07,17,10,17,22.90
2009,07,17,10,18,22.90
2009,07,17,10,19,23.00
2009,07,17,10,20,23.10
2009,07,17,10,21,23.10
2009,07,17,10,22,23.10
2009,07,17,10,23,23.10
2009,07,17,10,24,23.20
2009,07,17,10,25,23.20
2009,07,17,10,26,23.20
2009,07,17,10,27,23.20
2009,07,17,10,28,23.20
2009,07,17,10,29,23.20
2009,07,17,10,30,23.20
2009,07,17,10,31,23.20
2009,07,17,10,32,23.20
2009,07,17,10,33,23.30
2009,07,17,10,34,23.30
2009,07,17,10,38,23.30
2009,07,17,10,39,23.30
2009,07,17,10,40,23.30
2009,07,17,10,41,23.30
2009,07,17,10,42,23.30
2009,07,17,10,43,23.30
2009,07,17,10,44,23.30
2009,07,17,10,45,23.30
2009,07,17,10,46,23.30
2009,07,17,10,47,23.30
2009,07,17,10,48,23.30
2009,07,17,10,49,23.30
2009,07,17,10,50,23.30
2009,07,17,10,51,23.30
2009,07,17,10,52,23.30
2009,07,17,10,53,23.30
2009,07,17,10,54,23.40
2009,07,17,10,55,23.40
2009,07,17,10,56,23.40
2009,07,17,10,57,23.40
2009,07,17,10,58,23.40
2009,07,17,10,59,23.30
2009,07,17,11,00,23.30
2009,07,17,11,01,23.30
2009,07,17,11,02,23.30
2009,07,17,11,03,23.40
2009,07,17,11,04,23.40
2009,07,17,11,05,23.40
2009,07,17,11,06,23.40
2009,07,17,11,07,23.50
2009,07,17,11,08,23.60
2009,07,17,11,09,23.60
2009,07,17,11,10,23.60
2009,07,17,11,11,23.60
2009,07,17,11,12,23.60
2009,07,17,11,13,23.60
2009,07,17,11,14,23.70
2009,07,17,11,15,23.70
2009,07,17,11,16,23.70
2009,07,17,11,17,23.70
2009,07,17,11,18,23.70
2009,07,17,11,19,23.70
2009,07,17,11,20,23.70
2009,07,17,11,21,23.80
2009,07,17,11,22,23.80
2009,07,17,11,23,23.90
2009,07,17,11,24,23.90
2009,07,17,11,25,23.90
2009,07,17,11,26,24.00
2009,07,17,11,27,24.10
2009,07,17,11,28,24.10
2009,07,17,11,29,24.10
2009,07,17,11,30,24.10
2009,07,17,11,31,24.10
2009,07,17,11,32,24.10
2009,07,17,11,33,24.20
2009,07,17,11,34,24.20
2009,07,17,11,35,24.20
2009,07,17,11,36,24.20
2009,07,17,11,37,24.20
2009,07,17,11,38,24.20
2009,07,17,11,39,24.30
2009,07,17,11,40,24.30
2009,07,17,11,41,24.30
2009,07,17,11,42,24.40
2009,07,17,11,43,24.50
2009,07,17,11,44,24.50
2009,07,17,11,45,24.60
2009,07,17,11,46,24.60
2009,07,17,11,47,24.70
2009,07,17,11,48,24.70
2009,07,17,11,49,24.80
2009,07,17,11,50,24.80
2009,07,17,11,51,24.90
2009,07,17,11,52,24.90
2009,07,17,11,53,24.90
2009,07,17,11,54,24.90
2009,07,17,11,55,25.00
2009,07,17,11,56,25.00
2009,07,17,11,57,25.00
2009,07,17,11,58,25.00
2009,07,17,11,59,25.00
2009,07,17,12,00,25.00
2009,07,17,12,01,25.00
2009,07,17,12,02,25.00
2009,07,17,12,03,25.00
2009,07,17,12,04,25.00
2009,07,17,12,05,25.10
2009,07,17,12,06,25.10
2009,07,17,12,07,25.10
2009,07,17,12,08,25.10
2009,07,17,12,09,25.10
2009,07,17,12,10,25.10
2009,07,17,12,11,25.10
2009,07,17,12,12,25.10
2009,07,17,12,13,25.10
2009,07,17,12,14,25.10
2009,07,17,12,15,25.10
2009,07,17,12,16,25.10
2009,07,17,12,17,25.10
2009,07,17,12,18,25.10
2009,07,17,12,19,25.10
2009,07,17,12,20,25.10
2009,07,17,12,21,25.10
2009,07,17,12,22,25.10
2009,07,17,12,23,25.10
2009,07,17,12,24,25.20
2009,07,17,12,25,25.20
2009,07,17,12,26,25.20
2009,07,17,12,27,25.20
2009,07,17,12,28,25.30
2009,07,17,12,29,25.30
2009,07,17,12,30,25.30
2009,07,17,12,31,25.30
2009,07,17,12,32,25.20
2009,07,17,12,33,25.20
2009,07,17,12,34,25.30
2009,07,17,12,35,25.30
2009,07,17,12,36,25.30
2009,07,17,12,37,25.40
2009,07,17,12,38,25.40
2009,07,17,12,39,25.40
2009,07,17,12,40,25.40
2009,07,17,12,41,25.40
2009,07,17,12,42,25.40
2009,07,17,12,43,25.40
2009,07,17,12,44,25.40
2009,07,17,12,45,25.40
2009,07,17,12,46,25.50
2009,07,17,12,47,25.50
2009,07,17,12,48,25.50
2009,07,17,12,49,25.50
2009,07,17,12,50,25.50
2009,07,17,12,51,25.50
2009,07,17,12,52,25.60
2009,07,17,12,53,25.60
2009,07,17,12,54,25.70
2009,07,17,12,55,25.70
2009,07,17,12,56,25.70
2009,07,17,12,57,25.80
2009,07,17,12,58,25.90
2009,07,17,12,59,26.00
2009,07,17,13,00,26.20
2009,07,17,13,01,26.30
2009,07,17,13,02,26.40
2009,07,17,13,03,26.50
2009,07,17,13,04,26.60
2009,07,17,13,05,26.60
2009,07,17,13,06,26.60
2009,07,17,13,07,26.70
2009,07,17,13,08,26.70
2009,07,17,13,09,26.80
2009,07,17,13,10,26.80
2009,07,17,13,11,26.90
2009,07,17,13,12,27.00
2009,07,17,13,13,27.20
2009,07,17,13,14,27.30
2009,07,17,13,15,27.30
2009,07,17,13,16,27.30
2009,07,17,13,17,27.40
2009,07,17,13,18,27.50
2009,07,17,13,19,27.60
2009,07,17,13,20,27.70
2009,07,17,13,21,27.90
2009,07,17,13,22,27.90
2009,07,17,13,23,28.00
2009,07,17,13,24,28.10
2009,07,17,13,25,28.20
2009,07,17,13,26,28.30
2009,07,17,13,27,28.40
2009,07,17,13,28,28.40
2009,07,17,13,29,28.50
2009,07,17,13,30,28.60
2009,07,17,13,31,28.60
2009,07,17,13,32,28.70
2009,07,17,13,33,28.80
2009,07,17,13,34,28.90
2009,07,17,13,35,28.90
2009,07,17,13,36,28.90
2009,07,17,13,37,29.10
2009,07,17,13,38,29.10
2009,07,17,13,39,29.10
2009,07,17,13,40,29.10
2009,07,17,13,41,29.10
2009,07,17,13,42,29.10
2009,07,17,13,43,29.10
2009,07,17,13,44,29.10
2009,07,17,13,45,29.10
2009,07,17,13,46,29.10
2009,07,17,13,47,29.20
2009,07,17,13,48,29.40
2009,07,17,13,49,29.50
2009,07,17,13,50,29.70
2009,07,17,13,51,29.80
2009,07,17,13,52,29.90
2009,07,17,13,53,30.00
2009,07,17,13,54,30.20
2009,07,17,13,55,30.30
2009,07,17,13,56,30.30
2009,07,17,13,57,30.40
2009,07,17,13,58,30.50
2009,07,17,13,59,30.60
2009,07,17,14,00,30.70
2009,07,17,14,01,30.70
2009,07,17,14,02,30.70
2009,07,17,14,03,30.70
2009,07,17,14,04,30.70
2009,07,17,14,05,30.70
2009,07,17,14,06,30.70
2009,07,17,14,07,30.70
2009,07,17,14,08,30.70
2009,07,17,14,09,30.70
2009,07,17,14,10,30.70
2009,07,17,14,11,30.70
2009,07,17,14,12,30.70
2009,07,17,14,13,30.70
2009,07,17,14,14,30.80
2009,07,17,14,15,30.90
2009,07,17,14,16,31.00
2009,07,17,14,17,31.10
2009,07,17,14,18,31.20
2009,07,17,14,19,31.30
2009,07,17,14,20,31.30
2009,07,17,14,21,31.30
2009,07,17,14,22,31.20
2009,07,17,14,23,31.00
2009,07,17,14,24,31.00
2009,07,17,14,25,31.00
2009,07,17,14,26,31.00
2009,07,17,14,27,31.00
2009,07,17,14,28,31.00
2009,07,17,14,29,31.00
2009,07,17,14,30,31.00
2009,07,17,14,31,30.90
2009,07,17,14,32,30.90
2009,07,17,14,33,30.90
2009,07,17,14,34,30.90
2009,07,17,14,35,30.90
2009,07,17,14,36,30.90
2009,07,17,14,37,31.00
2009,07,17,14,38,31.10
2009,07,17,14,39,31.20
2009,07,17,14,40,31.20
2009,07,17,14,41,31.20
2009,07,17,14,42,31.20
2009,07,17,14,43,31.20
2009,07,17,14,44,31.10
2009,07,17,14,45,31.10
2009,07,17,14,46,31.00
2009,07,17,14,47,30.90
2009,07,17,14,48,30.90
2009,07,17,14,49,30.80
2009,07,17,14,50,30.80
2009,07,17,14,51,30.90
2009,07,17,14,52,31.00
2009,07,17,14,53,31.00
2009,07,17,14,54,31.00
2009,07,17,14,55,31.10
2009,07,17,14,56,31.10
2009,07,17,14,57,31.00
2009,07,17,14,58,31.00
2009,07,17,14,59,31.00
2009,07,17,15,00,31.00
2009,07,17,15,01,31.00
2009,07,17,15,02,31.00
2009,07,17,15,03,30.90
2009,07,17,15,04,30.70
2009,07,17,15,05,30.60
2009,07,17,15,06,30.50
2009,07,17,15,07,30.40
2009,07,17,15,08,30.40
2009,07,17,15,09,30.40
2009,07,17,15,10,30.40
2009,07,17,15,11,30.40
2009,07,17,15,12,30.40
2009,07,17,15,13,30.40
2009,07,17,15,14,30.40
2009,07,17,15,15,30.50
2009,07,17,15,16,30.60
2009,07,17,15,17,30.70
2009,07,17,15,18,30.70
2009,07,17,15,19,30.60
2009,07,17,15,20,30.60
2009,07,17,15,21,30.60
2009,07,17,15,22,30.40
2009,07,17,15,23,30.40
2009,07,17,15,24,30.40
2009,07,17,15,25,30.40
2009,07,17,15,26,30.50
2009,07,17,15,27,30.40
2009,07,17,15,28,30.40
2009,07,17,15,29,30.40
2009,07,17,15,30,30.40
2009,07,17,15,31,30.40
2009,07,17,15,32,30.40
2009,07,17,15,33,30.30
2009,07,17,15,34,30.30
2009,07,17,15,35,30.40
2009,07,17,15,36,30.30
2009,07,17,15,37,30.30
2009,07,17,15,38,30.20
2009,07,17,15,39,30.20
2009,07,17,15,40,30.20
2009,07,17,15,41,30.20
2009,07,17,15,42,30.20
2009,07,17,15,43,30.20
2009,07,17,15,44,30.00
2009,07,17,15,45,29.90
2009,07,17,15,46,29.80
2009,07,17,15,47,29.80
2009,07,17,15,48,29.80
2009,07,17,15,49,29.80
2009,07,17,15,50,29.70
2009,07,17,15,51,29.60
2009,07,17,15,52,29.50
2009,07,17,15,53,29.40
2009,07,17,15,54,29.40
2009,07,17,15,55,29.40
2009,07,17,15,56,29.40
2009,07,17,15,57,29.40
2009,07,17,15,58,29.40
2009,07,17,15,59,29.40
2009,07,17,16,00,29.40
2009,07,17,16,01,29.50
2009,07,17,16,02,29.50
2009,07,17,16,03,29.60
2009,07,17,16,04,29.60
2009,07,17,16,05,29.60
2009,07,17,16,06,29.60
2009,07,17,16,07,29.60
2009,07,17,16,08,29.50
2009,07,17,16,09,29.50
2009,07,17,16,10,29.50
2009,07,17,16,11,29.50
2009,07,17,16,12,29.50
2009,07,17,16,13,29.40
2009,07,17,16,14,29.40
2009,07,17,16,15,29.40
2009,07,17,16,16,29.30
2009,07,17,16,17,29.30
2009,07,17,16,18,29.20
2009,07,17,16,19,29.10
2009,07,17,16,20,29.10
2009,07,17,16,21,29.10
2009,07,17,16,22,29.10
2009,07,17,16,23,28.90
2009,07,17,16,24,28.90
2009,07,17,16,25,28.90
2009,07,17,16,26,28.90
2009,07,17,16,27,28.90
2009,07,17,16,28,28.90
2009,07,17,16,29,28.90
2009,07,17,16,30,28.90
2009,07,17,16,31,28.90
2009,07,17,16,32,28.80
2009,07,17,16,33,28.80
2009,07,17,16,34,28.80
2009,07,17,16,35,28.80
2009,07,17,16,36,28.80
2009,07,17,16,37,28.80
2009,07,17,16,38,28.80
2009,07,17,16,39,28.80
2009,07,17,16,40,28.80
2009,07,17,16,41,28.80
2009,07,17,16,42,28.80
2009,07,17,16,43,28.70
2009,07,17,16,44,28.70
2009,07,17,16,45,28.60
2009,07,17,16,46,28.60
2009,07,17,16,47,28.60
2009,07,17,16,48,28.70
2009,07,17,16,49,28.70
2009,07,17,16,50,28.70
2009,07,17,16,51,28.70
2009,07,17,16,52,28.70
2009,07,17,16,53,28.70
2009,07,17,16,54,28.70
2009,07,17,16,55,28.70
2009,07,17,16,56,28.70
2009,07,17,16,57,28.80
2009,07,17,16,58,28.80
2009,07,17,16,59,28.80
2009,07,17,17,00,28.90
2009,07,17,17,01,28.90
2009,07,17,17,02,28.90
2009,07,17,17,03,28.90
2009,07,17,17,04,28.90
2009,07,17,17,05,28.90
2009,07,17,17,06,28.90
2009,07,17,17,07,28.90
2009,07,17,17,08,28.90
2009,07,17,17,09,28.90
2009,07,17,17,10,28.80
2009,07,17,17,11,28.70
2009,07,17,17,12,28.70
2009,07,17,17,13,28.70
2009,07,17,17,14,28.70
2009,07,17,17,15,28.60
2009,07,17,17,16,28.60
2009,07,17,17,17,28.60
2009,07,17,17,18,28.60
2009,07,17,17,19,28.50
2009,07,17,17,20,28.40
2009,07,17,17,21,28.40
2009,07,17,17,22,28.40